TimeEST,TemperatureF,Dew PointF,Humidity,Sea Level PressureIn,VisibilityMPH,Wind Direction,Wind SpeedMPH,Gust SpeedMPH,PrecipitationIn,Events,Conditions,WindDirDegrees,DateUTC
4:15 AM,8.6,6.8,92,30.29,10.0,Calm,Calm,-,N/A,,Clear,0,2013-02-10 09:15:00
4:55 AM,10.4,6.8,85,30.29,10.0,Calm,Calm,-,N/A,,Clear,0,2013-02-10 09:55:00
5:15 AM,8.6,5.0,85,30.29,10.0,Calm,Calm,-,N/A,,Clear,0,2013-02-10 10:15:00
5:35 AM,10.4,10.4,100,30.28,10.0,Calm,Calm,-,N/A,,Clear,0,2013-02-10 10:35:00
5:55 AM,10.4,8.6,92,30.28,10.0,Calm,Calm,-,N/A,,Clear,0,2013-02-10 10:55:00
6:15 AM,10.4,8.6,92,30.29,10.0,Calm,Calm,-,N/A,,Clear,0,2013-02-10 11:15:00
6:35 AM,12.2,10.4,92,30.29,10.0,Calm,Calm,-,N/A,,Clear,0,2013-02-10 11:35:00
6:55 AM,12.2,10.4,92,30.30,10.0,Calm,Calm,-,N/A,,Clear,0,2013-02-10 11:55:00
7:15 AM,12.2,6.8,79,30.30,10.0,Calm,Calm,-,N/A,,Clear,0,2013-02-10 12:15:00
7:35 AM,12.2,10.4,92,30.29,10.0,Calm,Calm,-,N/A,,Clear,0,2013-02-10 12:35:00
7:55 AM,12.2,10.4,92,30.29,10.0,Calm,Calm,-,N/A,,Clear,0,2013-02-10 12:55:00
8:15 AM,15.8,12.2,86,30.29,10.0,Calm,Calm,-,N/A,,Clear,0,2013-02-10 13:15:00
8:35 AM,15.8,15.8,100,30.29,9.0,Calm,Calm,-,N/A,,Clear,0,2013-02-10 13:35:00
8:55 AM,17.6,15.8,93,30.29,9.0,Calm,Calm,-,N/A,,Clear,0,2013-02-10 13:55:00
9:15 AM,19.4,17.6,93,30.28,9.0,Calm,Calm,-,N/A,,Clear,0,2013-02-10 14:15:00
9:35 AM,21.2,19.4,93,30.28,10.0,Calm,Calm,-,N/A,,Clear,0,2013-02-10 14:35:00
9:55 AM,24.8,19.4,80,30.26,10.0,Calm,Calm,-,N/A,,Clear,0,2013-02-10 14:55:00
10:15 AM,28.4,19.4,69,30.26,10.0,SW,3.5,-,N/A,,Clear,220,2013-02-10 15:15:00
10:35 AM,30.2,19.4,64,30.26,10.0,Calm,Calm,-,N/A,,Clear,0,2013-02-10 15:35:00
10:55 AM,33.8,19.4,56,30.26,10.0,Calm,Calm,-,N/A,,Clear,0,2013-02-10 15:55:00
11:15 AM,35.6,19.4,52,30.26,10.0,ENE,3.5,-,N/A,,Clear,60,2013-02-10 16:15:00
11:35 AM,37.4,17.6,45,30.25,10.0,Calm,Calm,-,N/A,,Clear,0,2013-02-10 16:35:00
11:55 AM,39.2,17.6,42,30.24,10.0,SSE,4.6,-,N/A,,Partly Cloudy,160,2013-02-10 16:55:00
12:15 PM,42.8,19.4,39,30.22,10.0,South,4.6,-,N/A,,Mostly Cloudy,170,2013-02-10 17:15:00
12:35 PM,44.6,19.4,37,30.21,10.0,South,8.1,-,N/A,,Overcast,190,2013-02-10 17:35:00
12:55 PM,44.6,19.4,37,30.19,10.0,SE,4.6,-,N/A,,Overcast,140,2013-02-10 17:55:00
1:15 PM,44.6,19.4,37,30.18,10.0,Calm,Calm,-,N/A,,Overcast,0,2013-02-10 18:15:00
1:35 PM,44.6,19.4,37,30.15,10.0,SE,6.9,-,N/A,,Overcast,140,2013-02-10 18:35:00
1:55 PM,46.4,19.4,34,30.14,10.0,ESE,5.8,-,N/A,,Overcast,120,2013-02-10 18:55:00
2:15 PM,48.2,21.2,34,30.14,10.0,SSE,4.6,-,N/A,,Mostly Cloudy,150,2013-02-10 19:15:00
2:35 PM,48.2,21.2,34,30.13,10.0,SSE,4.6,-,N/A,,Scattered Clouds,150,2013-02-10 19:35:00
2:55 PM,48.2,21.2,34,30.13,10.0,South,5.8,-,N/A,,Overcast,170,2013-02-10 19:55:00
3:15 PM,48.2,21.2,34,30.13,10.0,SSE,4.6,-,N/A,,Overcast,150,2013-02-10 20:15:00
3:35 PM,48.2,21.2,34,30.11,10.0,ESE,6.9,-,N/A,,Overcast,120,2013-02-10 20:35:00
3:55 PM,46.4,23.0,40,30.10,10.0,East,6.9,-,N/A,,Overcast,90,2013-02-10 20:55:00
4:15 PM,48.2,21.2,34,30.10,10.0,Calm,Calm,-,N/A,,Overcast,0,2013-02-10 21:15:00
4:35 PM,46.4,21.2,37,30.09,10.0,East,4.6,-,N/A,,Overcast,90,2013-02-10 21:35:00
4:55 PM,46.4,23.0,40,30.08,10.0,East,6.9,-,N/A,,Overcast,90,2013-02-10 21:55:00
5:15 PM,46.4,21.2,37,30.07,10.0,East,6.9,-,N/A,,Overcast,100,2013-02-10 22:15:00
5:35 PM,46.4,21.2,37,30.07,10.0,East,3.5,-,N/A,,Overcast,80,2013-02-10 22:35:00
5:55 PM,46.4,21.2,37,30.05,10.0,East,5.8,-,N/A,,Overcast,80,2013-02-10 22:55:00
6:15 PM,42.8,24.8,49,30.07,10.0,Calm,Calm,-,N/A,,Overcast,0,2013-02-10 23:15:00
6:35 PM,44.6,23.0,43,30.07,10.0,Calm,Calm,-,N/A,,Overcast,0,2013-02-10 23:35:00
6:55 PM,42.8,23.0,46,30.08,10.0,SE,3.5,-,N/A,,Overcast,140,2013-02-10 23:55:00
7:15 PM,44.6,21.2,39,30.07,10.0,ESE,3.5,-,N/A,,Scattered Clouds,120,2013-02-11 00:15:00
7:35 PM,42.8,21.2,42,30.06,10.0,ESE,3.5,-,N/A,,Mostly Cloudy,110,2013-02-11 00:35:00
7:55 PM,42.8,21.2,42,30.06,10.0,SE,3.5,-,N/A,,Overcast,140,2013-02-11 00:55:00
8:15 PM,42.8,21.2,42,30.05,10.0,SE,3.5,-,N/A,,Overcast,140,2013-02-11 01:15:00
8:35 PM,42.8,23.0,46,30.04,10.0,SE,3.5,-,N/A,,Overcast,140,2013-02-11 01:35:00
8:55 PM,42.8,23.0,46,30.03,10.0,Calm,Calm,-,N/A,,Overcast,0,2013-02-11 01:55:00
9:15 PM,42.8,21.2,42,30.02,10.0,SE,4.6,-,N/A,,Overcast,140,2013-02-11 02:15:00
9:35 PM,42.8,23.0,46,30.02,10.0,SSE,4.6,-,N/A,,Overcast,160,2013-02-11 02:35:00
9:55 PM,44.6,23.0,43,30.01,10.0,SSE,6.9,-,N/A,,Overcast,160,2013-02-11 02:55:00
10:15 PM,44.6,23.0,43,30.00,10.0,SSE,5.8,-,N/A,,Overcast,160,2013-02-11 03:15:00
10:35 PM,44.6,23.0,43,29.99,10.0,SSE,10.4,-,N/A,,Overcast,150,2013-02-11 03:35:00
10:55 PM,44.6,23.0,43,29.99,10.0,South,8.1,-,N/A,,Overcast,170,2013-02-11 03:55:00
11:15 PM,44.6,24.8,46,30.00,10.0,South,15.0,23.0,N/A,,Overcast,180,2013-02-11 04:15:00
11:35 PM,42.8,30.2,61,29.99,10.0,South,13.8,23.0,N/A,,Overcast,180,2013-02-11 04:35:00
11:55 PM,39.2,35.6,87,29.97,5.0,South,9.2,16.1,N/A,,Overcast,180,2013-02-11 04:55:00